SNUGLITE-III DURI (66661 NORAD) Tracking and Keplerian Element Data

This shows tracking and keplerian element data for the satellite.

Feedback or suggestion? Click here.




ElementValue
Catalog66661
NameSNUGLITE-III DURI
Epoch Orbit346
Epoch Day353.84083554
Epoch Year2025
RAAN280.9485
Inclination97.7405
Eccentricity0.0013209
Argument of Perigee255.897
Mean Anonmoly104.0781
Mean Motion14.93132875
Decay Rate1.328E-05
L11 66661U 25274M 25353.84083554 .00001328 00000-0 13260-3 0 9999
L22 66661 97.7405 280.9485 0013209 255.8970 104.0781 14.93132875 3463



Live tracking and technical data element details for SNUGLITE-III DURI (NORAD 66661). SNUGLITE-III DURI can be tracked NOW for your location showing map with azimuth and elevation plus other details from your city location.







IsCatalogInMostPopularTable: catalog: 66661, numindb: 22
Update: records affected: 1



GetName: 66661 SNUGLITE-III DURI

Hit Count: updated at: Sat, 11 Apr 2026 21:41:09 GMT